CZ-3B R/B, 45808

Orbit data source: Space-Track

CZ-3B R/B, 45808 is space debris in HEO originally from a launch on Tue, 23 Jun 2020 UTC launched from the Xichang Space Center, China (XSC). Debris objects in space refer to the collection of defunct objects orbiting the Earth. Examples of debris include non-operational satellites, rocket bodies, and fragments generated from explosions, collisions, or faulty payload assembly.

Loading next visibility...
Identifier
45808, 2020-040B
Orbit
HEO
Last TLE update
1 day ago
Origin
Manufacturer
CALT
Mission
Spacecraft
Bus & Motor
CZ-3A STAGE 3, Unknown motor
Mass
~2,800 kg wet, ~2,800 kg dry
Launch date (UTC)
2020-06-23 (5 years ago)
Launch vehicle
Unknown
Launch site
Xichang Space Center, China (XSC)
Object type
Payload
Rocket body
Debris
Shape & HBR
Cyl + 1 Nozzle, 12.38 m
Radar Cross Section
32.704 m², Large (>1 m²)

Expand to show TLE details & history

TLE from 1 day ago
0 CZ-3B R/B
1 45808U 20040B   25186.19977175  .00068441 -15593-6  25146-2 0  9992
2 45808  28.0516 171.1376 6660056 113.4010 327.0372  3.14835844 49900
Epoch: 2025-07-05T04:47Z
TLE epoch observation values (Epoch: 2025-07-05T04:47:40.279Z)
Latitude
-0°
Longitude
175.77428°
Altitude
8,472.654 km
Speed
5.78 km/s
True Right ascension
11h 24m 32s
True Declination
0° 00' 00"
Sunlit
Object was in daylight at epoch
Visualization orbit readout
Latitude
-22.66383°
Longitude
123.57321°
Altitude
25,307.219 km
Speed
2.21 km/s
Apparent Right ascension
08h 04m 25s
Apparent Declination
-25° 34' 14"
Sunlit
Object is in daylight
Visualization observer readout
Local Sidereal Time
20:56:49
Azimuth
41.295° NE
Elevation
-71.957°
Doppler factor
1
Orbital elements
Apogee altitude
26,388.768 km
Perigee altitude
190.846 km
Semi-major axis
19,667.944 km
Eccentricity
0.66601
Inclination
28.0516°
RAAN
171.1376°
Arg. of periapsis
113.401°
True anomaly
Unknown
Mean anomaly
327.0372°
Eccentric anomaly
Unknown
Mean motion
0.78687 °/min
Orbital period
457.51 mins
BSTAR
0.0025146
Loading maneuver chart data...
Loading SW <> Apogee altitude chart data...
Loading historical data...
Loading historical data...
Loading historical data...
Loading historical data...
Loading historical data...
Loading historical data...
Loading historical data...
Other satellites on launch #40 in the year 2020 (2020-06-23 UTC)

CZ-3B R/B Visibility forecast

Observer location: undefined°, undefined°

Span
Click to sort rows by Start time (UTC) header in descending order
Start Az.
Max El. time (UTC)
Max El. Az.
Max El.
End time (UTC)
End Az.
27 mins2025-07-07 02:36:53.745Z237.5° WSW2025-07-07 02:59:53.745Z184.519° SSW26.86°2025-07-07 03:03:53.745Z133.98° SE
|